Weather History for London-Corbin, KY

Change the Weather History Date:

Monday, February 17, 2014

  Actual Average Record
Temperature  
Mean Temperature 43 °F 40 °F  
Max Temperature 59 °F 50 °F 71 °F (1975)
Min Temperature 26 °F 30 °F -8 °F (1958)
Degree Days  
Heating Degree Days 22 25  
Month to date heating degree days 528 454  
Since 1 July heating degree days 3259 3017  
Cooling Degree Days 0 0  
Month to date cooling degree days 0 0  
Year to date cooling degree days 0 0  
Moisture  
Dew Point 32 °F    
Average Humidity 59    
Maximum Humidity 81    
Minimum Humidity 36    
Precipitation  
Precipitation 0.13 in 0.13 in 3.07 in (1956)
Month to date precipitation 3.07 2.21  
Year to date precipitation 5.35 5.75  
Sea Level Pressure  
Sea Level Pressure 30.07 in    
Wind  
Wind Speed 9 mph (South)    
Max Wind Speed 25 mph    
Max Gust Speed 35 mph    
Visibility 10 miles    
Events Rain    
T = Trace of Precipitation, MM = Missing Value Source: NWS Daily Summary

Daily Weather History Graph

Daily Weather History Graph

Search for Another Location

Airport:

Trip Planner

Search our weather history database for the weather conditions in past years. The results will help you decide how hot, cold, wet, or windy it might be!

Date:

Astronomy

Feb. 17, 2014 Rise Set
Actual Time 7:22 AM EST 6:18 PM EST
Civil Twilight 6:56 AM EST 6:44 PM EST
Nautical Twilight 6:25 AM EST 7:15 PM EST
Astronomical Twilight 5:55 AM EST 7:45 PM EST
Moon 9:06 PM EST (2/17) 8:27 AM EST (2/17)
Length of Visible Light 11h 48m
Length of Day
10h 55m
Waning Gibbous, 93% of the Moon is Illuminated
Feb 17
Waning Gibbous
Feb 22
Last Quarter
Mar 1
New
Mar 8
First Quarter
Mar 16
Full

Hourly Weather History & Observations

Time (EST) Temp. Windchill Dew Point Humidity Pressure Visibility Wind Dir Wind Speed Gust Speed Precip Events Conditions
12:53 AM 30.0 °F 25.2 °F 23.0 °F 75% 30.24 in 10.0 mi NE 4.6 mph - N/A   Clear
1:53 AM 28.9 °F 25.2 °F 21.9 °F 75% 30.24 in 10.0 mi ENE 3.5 mph - N/A   Clear
2:53 AM 28.9 °F - 21.9 °F 75% 30.23 in 10.0 mi Calm Calm - N/A   Clear
3:53 AM 27.0 °F 23.0 °F 21.0 °F 78% 30.23 in 10.0 mi NNE 3.5 mph - N/A   Clear
4:53 AM 26.1 °F 21.9 °F 21.0 °F 81% 30.23 in 8.0 mi NE 3.5 mph - N/A   Clear
5:53 AM 28.0 °F - 21.0 °F 75% 30.23 in 10.0 mi Calm Calm - N/A   Clear
6:53 AM 28.0 °F 22.8 °F 21.0 °F 75% 30.22 in 10.0 mi ENE 4.6 mph - N/A   Clear
7:53 AM 28.0 °F 22.8 °F 21.9 °F 78% 30.21 in 9.0 mi East 4.6 mph - N/A   Partly Cloudy
8:53 AM 30.0 °F 26.5 °F 23.0 °F 75% 30.23 in 10.0 mi East 3.5 mph - N/A   Clear
9:53 AM 32.0 °F 26.4 °F 25.0 °F 75% 30.19 in 10.0 mi East 5.8 mph - N/A   Clear
10:53 AM 35.1 °F 30.1 °F 28.0 °F 76% 30.16 in 10.0 mi ESE 5.8 mph - N/A   Partly Cloudy
11:53 AM 39.0 °F 35.7 °F 30.0 °F 70% 30.13 in 10.0 mi SE 4.6 mph - N/A   Clear
12:53 PM 48.9 °F - 30.0 °F 48% 30.06 in 10.0 mi South 10.4 mph 17.3 mph N/A   Scattered Clouds
1:53 PM 55.0 °F - 30.9 °F 40% 29.99 in 10.0 mi South 13.8 mph 21.9 mph N/A   Partly Cloudy
2:53 PM 57.0 °F - 30.9 °F 37% 29.93 in 10.0 mi South 13.8 mph - N/A   Mostly Cloudy
3:53 PM 57.9 °F - 32.0 °F 37% 29.89 in 10.0 mi South 16.1 mph 32.2 mph N/A   Scattered Clouds
4:53 PM 57.0 °F - 33.1 °F 40% 29.87 in 10.0 mi South 18.4 mph 25.3 mph N/A   Overcast
5:53 PM 55.9 °F - 34.0 °F 44% 29.84 in 10.0 mi South 15.0 mph 21.9 mph N/A   Overcast
6:53 PM 53.1 °F - 39.9 °F 61% 29.88 in 7.0 mi SW 9.2 mph - 0.04 in Rain Light Rain
7:53 PM 50.0 °F - 44.1 °F 80% 29.95 in 9.0 mi WSW 17.3 mph 27.6 mph 0.09 in Rain Light Rain
8:12 PM 50.0 °F - 44.1 °F 80% 29.93 in 10.0 mi SW 12.7 mph 25.3 mph 0.00 in   Overcast
8:53 PM 50.0 °F - 45.0 °F 83% 29.96 in 10.0 mi SW 13.8 mph 19.6 mph 0.00 in   Overcast
9:08 PM 50.0 °F - 45.0 °F 83% 29.96 in 10.0 mi SW 13.8 mph - N/A   Overcast
9:18 PM 50.0 °F - 45.0 °F 83% 29.97 in 10.0 mi SW 11.5 mph 19.6 mph N/A   Mostly Cloudy
9:53 PM 48.9 °F - 41.0 °F 74% 30.05 in 10.0 mi West 21.9 mph 31.1 mph N/A   Mostly Cloudy
10:00 PM 48.0 °F - 39.9 °F 74% 30.04 in 10.0 mi West 19.6 mph 32.2 mph N/A   Scattered Clouds
10:53 PM 45.0 °F 37.9 °F 37.0 °F 74% 30.09 in 10.0 mi West 16.1 mph 21.9 mph N/A   Mostly Cloudy
11:53 PM 43.0 °F 38.2 °F 35.1 °F 74% 30.12 in 10.0 mi West 8.1 mph - N/A   Overcast